Location: Brahman Valley
(40.6513°N, 111.8855°W)
Time: 09:20:37
(UTC+00:00)

Tiros 1 despin weight - Pass Details

Date: 12 May 2021
Orbit: 594 x 641 km, 48.2° (Epoch: 22 June)

Event Time Altitude Azimuth Distance (km) Brightness Sun altitude
Rises 02:34:37 0° 197° (SSW) 2,901 ? -0.9°
Reaches altitude 10° 02:37:25 10° 181° (S) 2,005 ? -1.4°
Maximum altitude 02:40:46 20° 134° (SE) 1,468 ? -2.0°
Drops below altitude 10° 02:44:09 10° 87° (E) 2,026 ? -2.5°
Sets 02:47:00 0° 71° (ENE) 2,942 ? -3.0°
